TimeEDT,TemperatureF,Dew PointF,Humidity,Sea Level PressureIn,VisibilityMPH,Wind Direction,Wind SpeedMPH,Gust SpeedMPH,PrecipitationIn,Events,Conditions,WindDirDegrees,DateUTC
12:15 AM,65.3,63.5,94,29.74,10.0,SSE,8.1,-,N/A,Rain,Light Rain,160,2014-04-08 04:15:00
12:35 AM,65.7,63.7,93,29.73,10.0,SSE,9.2,-,N/A,,Light Drizzle,150,2014-04-08 04:35:00
12:55 AM,65.8,63.5,92,29.73,10.0,SSE,6.9,-,N/A,,Mostly Cloudy,150,2014-04-08 04:55:00
1:15 AM,66.2,63.5,91,29.72,10.0,SSE,9.2,-,0.01,Rain,Light Rain,150,2014-04-08 05:15:00
1:35 AM,66.4,63.5,90,29.71,10.0,South,8.1,-,0.01,Rain,Light Rain,170,2014-04-08 05:35:00
2:15 AM,66.2,63.7,92,29.70,10.0,South,11.5,16.1,0.01,Rain,Light Rain,170,2014-04-08 06:15:00
2:35 AM,66.2,63.7,92,29.69,10.0,South,11.5,17.3,0.02,Rain,Light Rain,170,2014-04-08 06:35:00
2:55 AM,66.7,63.7,90,29.69,10.0,South,8.1,-,0.02,Rain,Light Rain,180,2014-04-08 06:55:00
3:15 AM,67.1,63.9,89,29.68,10.0,SSW,9.2,18.4,N/A,,Drizzle,210,2014-04-08 07:15:00
3:35 AM,66.4,63.9,92,29.67,10.0,South,6.9,-,N/A,,Light Drizzle,190,2014-04-08 07:35:00
3:55 AM,66.4,63.9,92,29.66,10.0,South,5.8,-,N/A,,Overcast,170,2014-04-08 07:55:00
4:15 AM,66.2,63.9,92,29.65,10.0,South,6.9,-,N/A,,Overcast,190,2014-04-08 08:15:00
4:35 AM,66.2,63.9,92,29.64,10.0,SSW,5.8,-,N/A,,Mostly Cloudy,210,2014-04-08 08:35:00
4:55 AM,67.1,63.9,89,29.65,10.0,SW,3.5,-,N/A,,Overcast,220,2014-04-08 08:55:00
5:15 AM,67.1,63.9,89,29.66,10.0,SSW,6.9,-,N/A,,Overcast,210,2014-04-08 09:15:00
5:35 AM,66.9,63.9,90,29.65,10.0,SSW,6.9,-,N/A,,Overcast,210,2014-04-08 09:35:00
5:55 AM,66.7,63.7,90,29.64,10.0,South,5.8,-,N/A,,Overcast,180,2014-04-08 09:55:00
6:15 AM,66.7,63.9,90,29.65,10.0,South,4.6,-,N/A,,Overcast,190,2014-04-08 10:15:00
6:35 AM,66.2,63.9,92,29.65,10.0,South,3.5,-,N/A,,Overcast,190,2014-04-08 10:35:00
6:55 AM,65.8,63.9,93,29.66,10.0,South,3.5,-,N/A,Rain,Light Rain,190,2014-04-08 10:55:00
7:15 AM,65.5,63.9,94,29.65,5.0,SSE,4.6,-,0.01,Rain,Light Rain,150,2014-04-08 11:15:00
7:35 AM,65.3,63.9,95,29.67,7.0,South,5.8,-,0.02,Rain,Light Rain,190,2014-04-08 11:35:00
7:55 AM,65.3,63.9,95,29.66,5.0,South,4.6,-,0.02,Rain,Light Rain,180,2014-04-08 11:55:00
8:15 AM,65.3,64.0,96,29.66,5.0,Calm,Calm,-,N/A,Rain,Light Rain,0,2014-04-08 12:15:00
8:35 AM,65.5,64.2,96,29.67,5.0,SW,3.5,-,0.01,Rain,Light Rain,230,2014-04-08 12:35:00
8:55 AM,65.7,64.4,96,29.65,7.0,SSW,5.8,-,0.02,Rain,Light Rain,200,2014-04-08 12:55:00
9:15 AM,65.8,64.4,95,29.64,7.0,SW,4.6,-,N/A,Rain,Light Rain,220,2014-04-08 13:15:00
9:35 AM,66.2,64.6,94,29.65,7.0,SSW,6.9,-,N/A,Rain,Light Rain,210,2014-04-08 13:35:00
9:55 AM,66.4,64.6,94,29.64,10.0,SW,6.9,-,0.01,,Scattered Clouds,220,2014-04-08 13:55:00
10:10 AM,66.7,64.4,92,29.65,10.0,SW,8.1,-,N/A,,Mostly Cloudy,220,2014-04-08 14:10:00
10:35 AM,67.3,64.8,92,29.65,10.0,SW,6.9,-,N/A,,Mostly Cloudy,220,2014-04-08 14:35:00
10:55 AM,67.3,64.8,92,29.66,10.0,SW,5.8,-,N/A,,Overcast,220,2014-04-08 14:55:00
11:15 AM,67.5,64.6,90,29.65,10.0,SW,6.9,-,N/A,,Overcast,220,2014-04-08 15:15:00
11:35 AM,68.0,64.8,89,29.65,10.0,SW,9.2,-,N/A,,Overcast,220,2014-04-08 15:35:00
11:55 AM,68.5,64.9,88,29.64,10.0,SSW,10.4,-,N/A,,Overcast,210,2014-04-08 15:55:00
12:15 PM,69.3,64.4,84,29.63,10.0,SW,9.2,-,N/A,,Mostly Cloudy,220,2014-04-08 16:15:00
12:35 PM,70.0,63.9,81,29.62,10.0,SW,13.8,18.4,N/A,,Overcast,220,2014-04-08 16:35:00
12:55 PM,70.7,63.7,78,29.62,10.0,SW,9.2,-,N/A,,Mostly Cloudy,220,2014-04-08 16:55:00
1:15 PM,70.2,64.0,81,29.61,10.0,SSW,10.4,-,N/A,,Overcast,210,2014-04-08 17:15:00
1:35 PM,71.1,63.1,76,29.61,10.0,SW,8.1,-,N/A,,Mostly Cloudy,220,2014-04-08 17:35:00
1:55 PM,71.1,61.7,72,29.61,10.0,SW,8.1,16.1,N/A,,Mostly Cloudy,230,2014-04-08 17:55:00
2:15 PM,72.9,60.3,65,29.62,10.0,SW,11.5,19.6,N/A,,Scattered Clouds,220,2014-04-08 18:15:00
2:35 PM,71.8,59.4,65,29.61,-9999.0,SW,10.4,-,N/A,,Unknown,230,2014-04-08 18:35:00
2:55 PM,72.9,59.0,62,29.59,10.0,SSW,10.4,17.3,N/A,,Scattered Clouds,210,2014-04-08 18:55:00
3:15 PM,73.2,56.3,55,29.59,10.0,WSW,6.9,-,N/A,,Scattered Clouds,240,2014-04-08 19:15:00
3:35 PM,72.7,52.5,49,29.60,10.0,SSW,11.5,17.3,N/A,,Clear,210,2014-04-08 19:35:00
3:55 PM,73.2,52.3,48,29.59,10.0,SW,11.5,16.1,N/A,,Clear,220,2014-04-08 19:55:00
4:10 PM,72.0,50.0,46,29.59,10.0,SW,6.9,-,N/A,,Clear,230,2014-04-08 20:10:00
4:35 PM,70.7,46.9,43,29.59,10.0,West,8.1,-,N/A,,Clear,260,2014-04-08 20:35:00
4:55 PM,70.2,46.8,43,29.59,10.0,West,6.9,-,N/A,,Clear,270,2014-04-08 20:55:00
5:15 PM,69.8,46.8,44,29.60,10.0,WSW,4.6,-,N/A,,Clear,250,2014-04-08 21:15:00
5:35 PM,69.8,47.7,45,29.60,10.0,Calm,Calm,-,N/A,,Clear,0,2014-04-08 21:35:00
5:55 PM,70.0,47.5,45,29.59,10.0,West,3.5,-,N/A,,Clear,270,2014-04-08 21:55:00
6:15 PM,69.8,49.8,49,29.60,10.0,West,4.6,-,N/A,,Clear,270,2014-04-08 22:15:00
6:35 PM,69.1,51.3,53,29.60,10.0,Calm,Calm,-,N/A,,Clear,0,2014-04-08 22:35:00
6:55 PM,68.7,52.0,55,29.60,10.0,Calm,Calm,-,N/A,,Clear,0,2014-04-08 22:55:00
7:15 PM,67.6,51.3,56,29.62,10.0,West,3.5,-,N/A,,Clear,280,2014-04-08 23:15:00
7:35 PM,66.7,50.7,56,29.62,10.0,West,3.5,-,N/A,,Clear,280,2014-04-08 23:35:00
7:55 PM,65.5,50.2,58,29.62,10.0,Calm,Calm,-,N/A,,Clear,0,2014-04-08 23:55:00
8:10 PM,63.9,50.5,62,29.64,10.0,Calm,Calm,-,N/A,,Scattered Clouds,0,2014-04-09 00:10:00
8:35 PM,62.6,51.3,66,29.65,10.0,Calm,Calm,-,N/A,,Overcast,0,2014-04-09 00:35:00
8:55 PM,61.3,54.0,77,29.64,10.0,Calm,Calm,-,N/A,,Mostly Cloudy,0,2014-04-09 00:55:00
9:15 PM,61.0,53.4,76,29.65,10.0,Calm,Calm,-,N/A,,Scattered Clouds,0,2014-04-09 01:15:00
9:35 PM,60.8,54.0,78,29.65,10.0,Calm,Calm,-,N/A,,Clear,0,2014-04-09 01:35:00
9:55 PM,62.2,53.1,72,29.66,10.0,Calm,Calm,-,N/A,,Clear,0,2014-04-09 01:55:00
10:15 PM,61.3,52.7,73,29.66,10.0,Calm,Calm,-,N/A,,Scattered Clouds,0,2014-04-09 02:15:00
10:35 PM,60.4,53.4,78,29.65,10.0,Calm,Calm,-,N/A,,Scattered Clouds,0,2014-04-09 02:35:00
10:55 PM,60.1,53.8,80,29.65,10.0,Calm,Calm,-,N/A,,Scattered Clouds,0,2014-04-09 02:55:00
11:15 PM,59.9,54.5,82,29.65,10.0,Calm,Calm,-,N/A,,Scattered Clouds,0,2014-04-09 03:15:00
11:35 PM,59.9,53.1,78,29.66,10.0,Calm,Calm,-,N/A,,Scattered Clouds,0,2014-04-09 03:35:00
11:55 PM,59.7,53.4,80,29.67,10.0,Calm,Calm,-,N/A,,Scattered Clouds,0,2014-04-09 03:55:00